{"data":{"norad_id":57749,"intl_designator":"2023-131T","name":"STARLINK-30366","alt_names":[],"object_type":"PAYLOAD","status":"ACTIVE","operator":null,"country":"US","launch_date":"2023-09-01","launch_site_code":"AFETR","launch_vehicle":null,"mission":null,"orbit_class":"UNKNOWN","rcs_meters":null,"size_class":null,"mass_kg":null,"dimensions":null,"purposes":["comms"],"wikipedia_slug":null,"has_3d_model":false,"image_url":null,"decayed_at":null,"tle_current":{"epoch":"2026-09-20T23:15:04.090176Z","epoch_age_seconds":90801,"freshness":"FRESH","line1":"1 57749U 23131T   26263.96879734  .00001201  00000+0  53151-4 0  9996","line2":"2 57749  42.9992 153.7361 0001401 272.1854  87.8837 15.27575281169730","mean_motion":15.27575281,"eccentricity":0.0001401,"inclination_deg":42.9992,"raan_deg":153.7361,"arg_perigee_deg":272.1854,"mean_anomaly_deg":87.8837,"bstar":5.3151e-5,"rev_number":16973,"period_min":94.267039923383,"perigee_km":482.10197230795,"apogee_km":484.02448061141,"semimajor_km":6861.2002264597,"source":"CELESTRAK","updated_at":"2026-09-21T09:00:33.682050Z"}}}